Twin Falls, ID

12:44 AM MDT on June 25, 2017 (GMT -0600)
Joslin Field-Magic Valley Regional

Weather History for KTWF - November, 2013

Change the Weather History Date:

Wednesday, November 20, 2013

  Actual Average Record
Temperature  
Mean Temperature 40 °F -  
Max Temperature 48 °F 46 °F 67 °F (2008)
Min Temperature 31 °F 25 °F 10 °F (2000)
Degree Days  
Heating Degree Days 25 29  
Month to date heating degree days 427 502  
Since 1 July heating degree days 1038 1121  
Cooling Degree Days 0 0  
Month to date cooling degree days 0 0  
Year to date cooling degree days 1138 680  
Moisture  
Dew Point 33 °F    
Average Humidity 72    
Maximum Humidity 89    
Minimum Humidity 54    
Precipitation  
Precipitation 0.07 in 0.04 in 0.28 in (1983)
Month to date precipitation 0.23 0.72  
Year to date precipitation 4.46 8.97  
Sea Level Pressure  
Sea Level Pressure 29.86 in    
Wind  
Wind Speed 14 mph (SW)    
Max Wind Speed 24 mph    
Max Gust Speed 29 mph    
Visibility 9 miles    
Events Rain    
T = Trace of Precipitation, MM = Missing Value Source: NWS Daily Summary

Daily Weather History Graph

Daily Weather History Graph

Search for Another Location

Airport or City:

Trip Planner

Search our weather history database for the weather conditions in past years. The results will help you decide how hot, cold, wet, or windy it might be!

Date:

Astronomy

Nov. 20, 2013 Rise Set
Actual Time 7:35 AM MST 5:11 PM MST
Civil Twilight 7:04 AM MST 5:42 PM MST
Nautical Twilight 6:30 AM MST 6:16 PM MST
Astronomical Twilight 5:57 AM MST 6:49 PM MST
Moon 7:58 PM MST (11/20) 10:03 AM MST (11/20)
Length of Visible Light 10h 37m
Length of Day
9h 35m
Waning Gibbous, 91% of the Moon is Illuminated
Nov 20
Waning Gibbous
Nov 25
Last Quarter
Dec 2
New
Dec 9
First Quarter
Dec 17
Full

Hourly Weather History & Observations

Time (MST) Temp. Windchill Dew Point Humidity Pressure Visibility Wind Dir Wind Speed Gust Speed Precip Events Conditions
12:53 AM 48.0 °F - 36.0 °F 63% 29.79 in 10.0 mi South 13.8 mph - N/A   Overcast
1:53 AM 48.0 °F - 35.1 °F 61% 29.77 in 10.0 mi South 11.5 mph - N/A   Overcast
2:53 AM 48.0 °F - 35.1 °F 61% 29.76 in 10.0 mi South 11.5 mph - N/A   Overcast
3:53 AM 48.0 °F - 34.0 °F 58% 29.75 in 10.0 mi South 11.5 mph - 0.00 in Rain Light Rain
4:53 AM 46.9 °F - 36.0 °F 66% 29.74 in 10.0 mi South 11.5 mph - 0.00 in Rain Light Rain
5:53 AM 46.9 °F - 35.1 °F 63% 29.75 in 10.0 mi South 10.4 mph - 0.00 in   Overcast
6:53 AM 46.0 °F 41.4 °F 37.0 °F 71% 29.77 in 10.0 mi South 9.2 mph - 0.00 in Rain Light Rain
7:53 AM 46.0 °F 40.6 °F 37.0 °F 71% 29.76 in 10.0 mi South 11.5 mph - 0.01 in Rain Light Rain
8:53 AM 46.9 °F - 37.9 °F 71% 29.77 in 10.0 mi SSW 11.5 mph - 0.01 in Rain Light Rain
9:53 AM 46.0 °F 39.0 °F 39.9 °F 79% 29.78 in 9.0 mi West 17.3 mph 23.0 mph 0.02 in Rain Light Rain
10:39 AM 45.0 °F 38.5 °F 41.0 °F 86% 29.86 in 10.0 mi West 13.8 mph - 0.01 in Rain Light Rain
10:44 AM 45.0 °F 38.5 °F 41.0 °F 86% 29.86 in 8.0 mi West 13.8 mph - 0.01 in Rain Light Rain
10:53 AM 45.0 °F 38.9 °F 41.0 °F 86% 29.80 in 5.0 mi WNW 12.7 mph - 0.01 in Rain Light Rain
11:05 AM 44.1 °F 38.1 °F 41.0 °F 89% 29.87 in 5.0 mi WNW 11.5 mph - 0.00 in Rain Light Rain
11:53 AM 45.0 °F 37.9 °F 41.0 °F 86% 29.80 in 6.0 mi West 16.1 mph - 0.02 in Rain Light Rain
12:26 PM 45.0 °F 38.2 °F 39.9 °F 82% 29.85 in 10.0 mi West 15.0 mph - 0.00 in   Overcast
12:40 PM 43.0 °F 34.8 °F 39.0 °F 86% 29.84 in 2.5 mi West 18.4 mph 28.8 mph 0.00 in Rain Light Rain
12:42 PM 42.1 °F 32.8 °F 39.0 °F 89% 29.84 in 0.8 mi West 21.9 mph 28.8 mph 0.00 in Rain Light Rain
12:51 PM 41.0 °F 31.1 °F 37.4 °F 87% 29.85 in 0.8 mi West 23.0 mph - 0.00 in Rain Light Rain
12:53 PM 41.0 °F 31.6 °F 37.9 °F 89% 29.80 in 1.0 mi West 20.7 mph - 0.00 in Rain Light Rain
1:05 PM 39.9 °F 30.5 °F 37.0 °F 89% 29.85 in 4.0 mi WSW 19.6 mph - 0.00 in Rain Light Rain
1:50 PM 37.4 °F 27.5 °F 33.8 °F 87% 29.86 in 10.0 mi WSW 18.4 mph - 0.00 in Rain Light Rain
1:53 PM 37.0 °F 27.0 °F 34.0 °F 89% 29.82 in 10.0 mi WSW 18.4 mph - 0.00 in Rain Light Rain
2:20 PM 37.0 °F 28.1 °F 33.1 °F 86% 29.87 in 10.0 mi WSW 15.0 mph - 0.00 in Rain Light Rain
2:53 PM 37.0 °F 26.7 °F 33.1 °F 86% 29.83 in 10.0 mi WSW 19.6 mph - 0.00 in   Overcast
3:00 PM 37.0 °F 27.0 °F 33.1 °F 86% 29.87 in 10.0 mi WSW 18.4 mph - N/A   Overcast
3:12 PM 36.0 °F 25.6 °F 32.0 °F 86% 29.88 in 10.0 mi WSW 18.4 mph - N/A   Overcast
3:22 PM 37.0 °F 28.5 °F 32.0 °F 82% 29.88 in 10.0 mi WSW 13.8 mph - N/A   Overcast
3:49 PM 37.4 °F 28.5 °F 32.0 °F 81% 29.89 in 10.0 mi WSW 15.0 mph - N/A   Overcast
3:53 PM 37.0 °F 27.7 °F 32.0 °F 82% 29.86 in 10.0 mi WSW 16.1 mph - N/A   Overcast
4:53 PM 36.0 °F 28.0 °F 30.9 °F 82% 29.88 in 10.0 mi SW 11.5 mph - N/A   Overcast
5:02 PM 36.0 °F 28.5 °F 30.9 °F 82% 29.92 in 10.0 mi SW 10.4 mph - N/A   Overcast
5:53 PM 35.1 °F 26.4 °F 28.9 °F 78% 29.91 in 10.0 mi WSW 12.7 mph - N/A   Overcast
6:43 PM 35.1 °F 25.5 °F 27.0 °F 72% 29.96 in 10.0 mi SW 15.0 mph - N/A   Overcast
6:53 PM 35.1 °F 24.8 °F 27.0 °F 72% 29.93 in 10.0 mi SW 17.3 mph - N/A   Overcast
7:00 PM 35.1 °F 23.8 °F 26.1 °F 70% 29.96 in 10.0 mi SW 20.7 mph 25.3 mph N/A   Mostly Cloudy
7:53 PM 34.0 °F 23.8 °F 23.0 °F 64% 29.94 in 10.0 mi SW 16.1 mph - N/A   Overcast
8:15 PM 34.0 °F 23.8 °F 21.9 °F 61% 29.98 in 10.0 mi SW 16.1 mph - N/A   Overcast
8:39 PM 34.0 °F 23.4 °F 21.0 °F 59% 29.99 in 10.0 mi SW 17.3 mph 24.2 mph N/A   Overcast
8:53 PM 33.1 °F 23.4 °F 19.9 °F 59% 29.96 in 10.0 mi SW 13.8 mph - N/A   Overcast
9:53 PM 33.1 °F 23.0 °F 19.0 °F 56% 29.98 in 10.0 mi SW 15.0 mph - N/A   Mostly Cloudy
10:53 PM 32.0 °F 24.2 °F 18.0 °F 56% 30.01 in 10.0 mi SW 9.2 mph - N/A   Overcast
11:53 PM 30.9 °F 25.2 °F 18.0 °F 59% 30.04 in 10.0 mi SW 5.8 mph - N/A   Overcast